Terug naar catalogus

STARLINK-3626

ActiefCommunicatieVLEO
NORAD 51792·PAYLOAD·🇺🇸 United States

Gelanceerd Feb 25, 2022 vanaf Vandenberg Space Force Base

Loading…

Volgende Passages (komende 24 uur)

TLE

VersSource: CelesTrak SupGP

Epoch: Sep 15, 2026, 02:14 UTC

1 51792C 22017AA  26258.09354167 -.00019377  00000+0 -58816-3 0  2581
2 51792  53.1581 205.1447 0001347  86.3715 216.2687 15.33548576    17

Volg STARLINK-3626 in realtime met AllMySat

Download on the App Store